Regional Weather Roundup
Issued by NWS Cleveland, OH

Home | Current Version | Previous Version | Text Only | Print | Product List | Glossary Off
Versions: 1 2 3 4 5 6 7 8 9 10 11 12 13 14 15 16 17 18 19 20 21 22 23 24 25 26 27 28 29 30 31 32 33 34 35 36 37 38 39 40 41 42 43 44 45 46 47 48 49 50

000
ASUS41 KCLE 291410
RWRCLE
OHIO REGIONAL WEATHER ROUNDUP
NATIONAL WEATHER SERVICE WILMINGTON, OH
1000 AM EDT SUN MAY 29 2016

NOTE: "FAIR" INDICATES FEW OR NO CLOUDS BELOW 12,000 FEET WITH NO
SIGNIFICANT WEATHER AND/OR OBSTRUCTIONS TO VISIBILITY.

OHZ001>008-015>018-024>027-034-035-043-044-291500-
   NORTHWEST OHIO

CITY           SKY/WX    TMP DP  RH WIND       PRES   REMARKS
DEFIANCE       FAIR      75  66  73 SW9       30.07R
FINDLAY        FAIR      75  65  70 SW9       30.08R
TOLEDO EXPRESS FAIR      74  66  76 SW6       30.06S
TOLEDO EXEC    FAIR      77  65  66 SW12      30.07S
LIMA           FAIR      74  67  78 S8        30.09S
$$

OHZ009>014-019>023-028>033-038-089-291500-
   NORTHEAST OHIO

CITY           SKY/WX    TMP DP  RH WIND       PRES   REMARKS
CLE-HOPKINS    CLOUDY    77  64  64 S9        30.11S
CLE-LAKEFRONT  FAIR      78  65  63 S12       30.08S
CUY CO. ARPT   CLOUDY    79  66  65 SW10      30.11S
LORAIN-ELYRIA  FAIR      74  65  73 SW8       30.10S
ASHTABULA      FAIR      76  68  76 S7        30.12S
AKRON-CANTON   CLOUDY    75  64  68 S3        30.13S
WOOSTER        FAIR      76  64  66 SW8       30.13S
MANSFIELD      FAIR      73  66  78 S8        30.13S
YOUNGSTOWN     CLOUDY    76  65  68 SW8       30.13S
$$

OHZ042-051>053-060>062-070>072-077>081-291500-
  SOUTHWEST OHIO

CITY           SKY/WX    TMP DP  RH WIND       PRES   REMARKS
CINC-COVINGTON PTSUNNY   73  66  78 SW5       30.12S
CINC-LUNKEN    FAIR      70  67  90 CALM      30.12S
HAMILTON       FAIR      76  66  71 MISG      30.12R
DAYTON         PTSUNNY   74  65  73 SW8       30.12R
WRIGHT-PAT AFB FAIR      73  67  81 S6        30.11R
DAYTON GENERAL FAIR      73  64  73 S8        30.11S
WILMINGTON     PTSUNNY   73  64  73 S7        30.13S
$$

OHZ036-037-039>041-045>050-054>059-063>069-073>076-082>088-291500-
  CENTRAL AND SOUTHEAST OHIO

CITY           SKY/WX    TMP DP  RH WIND       PRES   REMARKS
COLUMBUS       CLOUDY    74  65  73 S5        30.12S
OSU AIRPORT    FAIR      73  65  75 S7        30.12S
BOLTON FIELD   SUNNY     73  66  78 SE7       30.13S
RICKENBACK AFB FAIR      73  67  83 S8        30.12S
NEWARK         PTSUNNY   75  68  78 SW5       30.13S
MARION         PTSUNNY   73  66  78 S8        30.11S HAZE
LANCASTER      PTSUNNY   71  66  84 S7        30.15R
ZANESVILLE     FAIR      79  68  69 CALM      30.13S
NEW PHILLY     FAIR      75  66  73 CALM      30.14S
$$



USA.gov is the U.S. government's official web portal to all federal, state and local government web resources and services.